Wind_Speed
26 31 35 39 44 46 47 44 45 46 47 45 45 46 45 46 47 46 44 44 44 44 44 42 41 42 42 41 40 40 40 39 37 35 34 32 33 33 33 33 33 33 33 33
24 28 33 37 41 43 44 43 42 43 43 43 42 43 43 42 44 43 42 41 42 42 42 42 42 40 40 41 41 41 40 39 39 39 39 38 37 36 36 35 35 36 36 36
22 28 32 35 37 39 41 40 39 38 38 38 39 41 41 40 40 41 41 40 38 38 39 39 40 41 40 40 40 42 42 41 41 41 40 40 39 39 38 38 38 38 37 37
21 26 30 32 33 35 36 36 35 34 35 35 34 36 37 37 37 38 39 39 36 35 36 37 38 40 41 40 40 40 41 42 42 41 40 41 41 40 40 40 40 40 40 39
19 24 27 27 29 31 32 33 31 30 29 31 32 32 31 33 32 32 33 34 34 34 35 36 37 39 40 41 41 41 41 41 42 43 43 42 42 42 42 42 42 41 41 41
19 21 23 25 27 28 29 29 27 26 27 27 28 28 27 27 27 28 29 30 30 32 33 35 36 37 39 40 41 42 43 43 43 43 44 43 43 44 44 45 44 44 44 44
19 19 21 23 24 25 25 26 25 24 25 25 25 25 25 24 24 25 27 28 29 30 32 33 35 36 38 40 40 42 43 44 44 45 45 46 45 45 45 46 46 46 47 47
19 20 21 21 21 23 23 22 23 23 24 23 23 23 23 23 23 24 26 27 28 29 30 31 33 34 36 38 40 42 43 44 45 45 45 46 47 47 47 47 48 48 49 48
18 19 20 20 20 22 22 21 21 21 21 22 22 23 23 23 23 24 25 27 28 29 30 31 33 35 36 37 39 41 42 44 45 46 46 47 47 48 48 48 49 48 48 49
15 17 18 18 18 19 19 20 20 20 20 21 21 22 23 24 25 26 26 27 29 30 31 32 33 35 36 38 39 40 41 42 44 46 47 48 49 49 49 50 50 50 50 50
12 13 14 15 15 15 16 18 18 19 19 19 20 20 21 22 24 25 26 28 29 30 31 32 33 35 36 37 39 40 41 42 42 43 45 46 48 49 49 50 51 51 51 51
10 12 12 12 12 13 14 14 16 17 18 18 19 19 20 22 23 24 26 27 29 30 31 31 32 33 34 36 37 39 40 42 43 44 45 45 46 48 49 49 50 50 51 52
9 10 10 10 11 12 13 14 16 17 18 18 19 20 21 22 23 24 26 27 28 29 30 30 31 32 33 34 35 36 38 39 41 43 44 45 46 47 47 48 49 49 50 51
8 8 8 9 9 11 12 14 16 17 19 19 20 21 22 23 24 25 26 27 28 29 30 31 32 33 34 34 34 34 35 36 38 39 41 42 43 45 47 48 48 48 48 47
7 7 8 8 10 11 12 13 15 17 18 20 21 23 24 25 26 26 27 28 29 30 31 32 33 34 35 36 36 36 36 37 38 39 40 41 42 43 43 44 44 44 44 43
6 6 7 8 9 11 12 13 15 17 18 20 22 23 24 25 26 26 27 29 30 31 32 33 34 35 36 37 37 38 38 38 39 39 40 40 41 42 43 43 43 43 42 42
6 6 8 8 10 12 13 14 16 18 19 21 23 24 26 27 28 29 30 30 31 32 33 34 35 36 37 38 38 39 39 39 39 39 40 40 41 41 42 42 42 42 42 42
7 8 9 11 12 14 14 16 18 19 21 23 24 26 28 29 31 31 32 32 33 33 34 34 35 36 37 38 39 39 39 39 40 40 40 40 40 41 41 41 41 41 41 41
7 8 10 11 13 14 15 17 19 20 22 24 26 27 29 30 32 33 34 34 35 36 36 36 36 37 38 39 39 39 40 40 40 40 40 40 40 41 41 41 41 41 41 41
7 8 10 11 13 14 16 17 19 21 22 24 26 28 29 31 32 33 35 36 36 37 38 38 38 38 38 39 39 39 39 40 40 40 41 41 40 40 40 40 40 40 40 39
5 7 9 10 12 13 15 17 19 20 22 23 25 27 29 31 32 33 35 36 37 38 38 39 39 39 39 40 40 39 39 40 40 40 40 40 40 40 40 39 39 39 38 38
5 6 8 10 11 12 15 17 18 20 22 24 26 28 30 31 33 34 35 35 37 38 39 39 39 39 39 39 39 39 39 40 40 40 39 40 40 39 39 39 38 38 37 37
7 8 9 10 11 13 15 17 19 21 23 25 27 29 30 32 33 35 36 37 37 38 38 39 39 40 40 39 39 39 39 39 39 39 39 39 39 39 39 38 38 37 36 35
8 10 11 12 13 14 16 18 20 22 24 26 27 29 30 31 32 34 35 36 38 38 39 39 39 39 39 39 39 39 38 39 39 39 39 39 39 38 38 38 37 37 36 35
11 12 13 15 16 17 18 19 21 23 25 27 28 29 30 31 32 33 33 34 35 37 38 39 39 39 39 39 39 39 38 38 38 38 38 38 38 38 38 37 37 36 35 34
15 15 16 17 19 20 21 22 23 25 26 28 29 31 31 32 32 34 35 36 37 37 38 39 39 39 39 38 38 37 37 37 36 36 37 37 37 37 37 36 36 35 34 33
Wind_Direction
176 184 187 190 192 193 194 196 198 199 202 205 207 209 210 212 214 216 218 222 226 229 232 234 236 238 239 240 241 242 244 244 244 245 247 250 252 254 257 260 263 263 264 263
174 179 183 186 190 192 195 196 198 201 201 206 211 211 212 213 214 217 219 222 227 229 231 234 237 239 240 242 243 245 246 247 247 249 252 255 256 258 260 263 264 264 265 265
169 174 178 183 187 193 197 198 199 202 205 208 213 215 216 216 217 219 220 223 226 228 229 233 236 238 240 243 245 246 247 248 250 251 253 255 258 260 261 262 263 264 264 265
165 171 174 178 186 190 194 198 200 203 206 209 211 214 214 216 217 219 220 223 225 228 231 234 236 238 239 242 245 248 249 249 250 252 253 255 257 259 260 261 263 263 264 265
159 166 172 175 179 185 191 197 199 202 205 209 213 216 214 215 216 218 220 224 227 229 233 236 237 237 238 240 243 246 249 250 251 253 254 256 256 258 260 261 262 262 263 264
150 158 167 172 175 181 188 193 198 204 208 210 211 215 217 218 219 220 223 225 229 232 233 235 236 237 239 241 243 246 248 250 252 253 254 255 257 258 259 260 261 262 264 264
150 156 162 169 175 179 186 191 195 199 205 209 211 215 218 220 223 223 226 228 231 233 234 236 237 239 240 242 244 246 248 249 251 252 254 255 257 258 259 261 262 264 265 266
146 155 163 167 176 183 187 192 198 203 208 212 215 217 219 221 224 226 229 231 234 237 238 238 239 241 242 243 244 246 247 249 251 252 254 256 257 258 260 262 263 265 267 268
149 155 163 171 174 181 188 197 204 209 214 218 220 222 225 227 228 230 233 235 237 239 241 242 242 243 244 245 246 247 248 249 251 252 255 256 257 258 260 262 264 265 267 269
148 157 162 166 173 181 189 196 203 210 215 218 221 224 227 229 231 234 235 236 239 241 242 243 244 244 245 246 247 248 249 250 251 252 254 255 257 259 260 263 264 266 268 270
156 159 164 169 178 184 190 198 205 211 216 220 223 226 227 230 232 234 236 238 240 241 242 243 244 245 245 246 248 249 249 250 251 253 254 255 257 259 262 263 264 266 268 270
163 168 172 178 187 195 200 206 212 218 223 227 231 232 231 233 234 236 237 238 239 240 242 243 245 246 247 247 248 249 250 250 251 253 254 255 257 259 261 263 264 266 269 269
164 171 180 188 197 204 209 214 218 223 226 229 231 233 235 238 239 239 240 241 241 242 243 244 245 246 247 248 249 249 250 251 253 254 255 256 258 259 261 263 264 266 268 269
164 175 186 195 204 212 217 220 223 227 230 232 233 236 239 241 242 243 244 245 245 246 245 245 245 246 247 248 249 251 251 252 253 255 256 257 259 260 261 262 264 266 268 269
179 184 195 205 212 218 225 229 231 232 234 236 238 241 242 244 247 249 250 249 248 248 247 247 247 247 248 249 251 252 253 253 254 255 256 257 258 260 261 262 264 265 266 268
200 210 220 226 231 234 237 238 239 241 242 242 243 246 249 251 252 252 252 252 251 251 251 250 250 250 250 251 252 253 254 254 255 256 257 257 258 259 261 262 263 264 266 267
231 238 246 250 250 250 250 249 249 250 251 250 250 251 252 253 254 255 255 256 255 254 253 253 252 252 252 252 252 253 254 255 256 257 257 258 259 260 261 262 263 265 266 268
251 254 257 259 260 258 259 258 259 258 257 257 256 256 256 257 258 258 258 258 257 257 256 256 255 255 255 255 255 255 255 256 256 257 258 259 260 261 262 263 264 266 268 269
262 264 267 270 268 265 266 266 266 266 264 263 262 261 261 260 260 260 260 259 259 259 259 259 258 258 257 258 258 258 257 257 258 258 258 259 260 261 262 263 265 266 268 269
273 274 276 279 278 274 273 273 273 272 271 269 267 266 266 265 264 264 264 263 262 261 261 261 260 260 259 259 259 259 259 259 258 258 259 259 260 261 262 263 264 265 267 268
300 292 288 288 288 283 281 279 278 278 277 275 273 271 270 269 268 267 267 266 265 264 263 262 262 261 261 260 260 260 260 259 259 259 259 260 260 261 262 263 263 265 266 268
329 316 308 302 298 293 290 286 284 283 282 280 278 277 275 273 272 271 270 269 268 267 266 265 264 263 263 262 261 260 260 260 259 259 259 259 259 260 261 261 263 264 265 267
351 337 325 318 311 306 301 294 290 288 288 286 284 281 278 277 275 273 272 271 270 269 268 266 265 264 264 263 262 261 260 260 259 258 258 258 258 259 259 260 262 263 264 266
351 343 335 327 322 317 311 305 300 296 294 293 290 285 283 281 279 278 276 274 272 271 270 268 266 265 264 263 262 261 260 260 258 257 257 257 258 258 259 260 262 262 263 263
339 334 331 327 324 320 316 311 307 302 300 298 295 291 287 284 282 281 280 278 276 273 272 270 268 266 264 263 262 261 260 259 258 256 256 256 257 258 259 260 261 261 260 261
332 328 325 323 321 319 316 313 310 308 304 300 296 293 289 287 285 283 282 280 278 277 274 271 269 265 263 262 261 260 258 258 257 256 255 255 255 256 257 258 258 258 258 258
Height
5598 5605 5612 5621 5630 5640 5650 5658 5667 5676 5684 5692 5699 5707 5714 5721 5728 5735 5742 5749 5755 5761 5766 5772 5776 5781 5786 5791 5796 5800 5804 5808 5811 5814 5817 5819 5822 5824 5826 5828 5830 5831 5832 5832
5600 5607 5613 5621 5630 5639 5648 5656 5665 5673 5681 5689 5695 5702 5709 5716 5723 5730 5737 5744 5750 5756 5761 5767 5772 5776 5780 5786 5790 5794 5797 5801 5804 5807 5810 5812 5815 5817 5819 5821 5822 5823 5824 5825
5603 5610 5615 5623 5631 5640 5648 5657 5665 5672 5679 5686 5693 5700 5706 5712 5719 5726 5732 5738 5744 5750 5756 5761 5766 5770 5775 5779 5783 5787 5790 5793 5797 5800 5802 5804 5807 5809 5811 5813 5814 5815 5816 5817
5607 5613 5619 5626 5633 5642 5650 5657 5665 5672 5679 5684 5691 5697 5703 5708 5715 5722 5728 5734 5739 5745 5751 5756 5760 5764 5768 5772 5776 5780 5783 5786 5789 5791 5794 5796 5799 5801 5802 5804 5805 5806 5807 5808
5613 5618 5623 5629 5636 5644 5651 5658 5665 5672 5678 5684 5689 5695 5701 5705 5712 5718 5724 5729 5735 5740 5745 5750 5754 5757 5761 5765 5768 5772 5775 5778 5780 5783 5786 5788 5790 5792 5793 5795 5796 5797 5798 5798
5618 5622 5628 5634 5640 5646 5653 5660 5665 5670 5676 5683 5687 5693 5699 5704 5709 5714 5720 5725 5730 5735 5739 5743 5747 5750 5754 5757 5760 5763 5767 5770 5772 5775 5777 5779 5781 5782 5783 5785 5786 5787 5788 5788
5623 5627 5632 5638 5643 5649 5655 5661 5667 5671 5675 5681 5686 5692 5698 5702 5706 5711 5716 5720 5725 5729 5733 5737 5740 5744 5747 5749 5752 5755 5758 5761 5763 5765 5767 5769 5771 5772 5773 5775 5776 5776 5777 5777
5627 5632 5636 5641 5646 5650 5656 5662 5668 5672 5676 5681 5685 5690 5696 5699 5703 5707 5712 5716 5720 5724 5727 5731 5734 5736 5739 5741 5744 5746 5749 5751 5754 5756 5758 5759 5761 5762 5763 5764 5765 5766 5766 5767
5632 5635 5639 5643 5648 5653 5656 5661 5667 5672 5675 5679 5683 5688 5693 5696 5700 5703 5707 5711 5714 5718 5721 5724 5726 5728 5731 5733 5735 5738 5740 5742 5744 5746 5747 5749 5750 5751 5753 5754 5755 5755 5755 5756
5636 5639 5642 5645 5650 5654 5658 5662 5666 5670 5673 5677 5681 5685 5689 5692 5695 5698 5702 5705 5708 5711 5714 5716 5718 5720 5722 5724 5726 5728 5730 5732 5734 5735 5737 5738 5739 5740 5741 5743 5743 5744 5744 5744
5639 5642 5645 5648 5651 5654 5658 5662 5665 5668 5672 5675 5678 5684 5685 5687 5689 5692 5696 5699 5702 5704 5706 5708 5710 5712 5714 5715 5717 5719 5720 5722 5723 5725 5726 5727 5728 5730 5730 5731 5731 5732 5732 5732
5642 5645 5647 5650 5652 5655 5658 5661 5664 5667 5670 5672 5675 5681 5680 5682 5684 5686 5689 5692 5694 5696 5698 5700 5702 5703 5705 5706 5708 5709 5710 5712 5713 5714 5715 5716 5717 5718 5719 5719 5719 5720 5720 5720
5644 5646 5648 5651 5655 5656 5657 5660 5662 5665 5667 5669 5672 5676 5675 5677 5679 5681 5683 5685 5687 5689 5690 5692 5693 5695 5696 5697 5698 5699 5700 5701 5702 5703 5704 5705 5706 5707 5707 5707 5708 5708 5708 5708
5645 5647 5650 5652 5653 5655 5656 5658 5660 5662 5664 5666 5668 5670 5671 5672 5673 5675 5677 5678 5679 5681 5682 5683 5684 5685 5687 5688 5689 5690 5690 5691 5692 5693 5694 5694 5695 5695 5696 5696 5696 5696 5696 5696
5645 5647 5649 5650 5652 5653 5654 5656 5657 5659 5660 5662 5663 5664 5665 5666 5667 5669 5670 5671 5671 5672 5673 5674 5675 5676 5677 5678 5679 5680 5681 5681 5682 5683 5683 5684 5684 5685 5685 5685 5685 5685 5685 5684
5645 5646 5648 5649 5650 5651 5652 5653 5654 5655 5656 5657 5658 5659 5659 5660 5660 5661 5662 5662 5663 5664 5664 5665 5666 5666 5667 5668 5669 5670 5670 5671 5672 5672 5673 5673 5673 5673 5674 5674 5674 5674 5673 5673
5644 5645 5646 5647 5647 5648 5649 5650 5650 5651 5651 5652 5653 5654 5653 5653 5653 5654 5654 5654 5654 5655 5655 5655 5656 5656 5657 5657 5658 5659 5659 5660 5661 5661 5661 5662 5662 5662 5662 5663 5663 5663 5663 5663
5642 5642 5643 5644 5645 5645 5647 5645 5645 5646 5646 5646 5646 5647 5646 5646 5645 5645 5645 5645 5645 5645 5645 5645 5646 5646 5646 5646 5647 5648 5648 5649 5649 5650 5650 5650 5651 5651 5651 5651 5651 5652 5652 5651
5638 5639 5640 5640 5640 5640 5641 5640 5640 5640 5640 5640 5639 5639 5638 5637 5637 5636 5636 5636 5635 5635 5635 5635 5635 5635 5635 5635 5636 5636 5637 5637 5638 5638 5639 5639 5639 5640 5640 5640 5640 5641 5641 5640
5635 5636 5636 5636 5636 5636 5637 5635 5634 5635 5634 5633 5632 5631 5630 5629 5628 5628 5626 5625 5625 5624 5624 5624 5624 5624 5624 5624 5624 5625 5625 5626 5626 5626 5627 5628 5628 5629 5629 5629 5629 5630 5629 5629
5632 5632 5632 5631 5631 5631 5631 5629 5629 5629 5629 5626 5624 5623 5621 5620 5619 5618 5616 5615 5614 5613 5613 5612 5612 5612 5612 5612 5613 5613 5613 5614 5614 5615 5616 5616 5617 5617 5618 5618 5618 5618 5618 5618
5629 5629 5628 5627 5627 5629 5625 5624 5623 5622 5620 5618 5616 5614 5612 5610 5608 5607 5605 5604 5603 5602 5601 5600 5600 5600 5600 5600 5601 5601 5601 5602 5602 5603 5604 5605 5605 5606 5606 5607 5607 5607 5608 5608
5626 5626 5625 5624 5625 5622 5619 5617 5616 5614 5612 5610 5607 5604 5602 5600 5598 5596 5594 5592 5591 5590 5589 5588 5588 5588 5587 5587 5588 5588 5589 5589 5590 5591 5592 5593 5594 5594 5595 5596 5596 5597 5597 5597
5624 5622 5621 5619 5617 5616 5613 5611 5609 5606 5604 5601 5597 5594 5591 5589 5587 5584 5582 5580 5579 5577 5576 5575 5575 5575 5575 5575 5575 5576 5576 5577 5578 5579 5580 5581 5582 5583 5584 5584 5585 5586 5586 5587
5621 5619 5617 5615 5613 5610 5608 5605 5602 5599 5595 5592 5588 5584 5581 5578 5576 5573 5571 5569 5566 5565 5563 5562 5561 5561 5561 5562 5562 5562 5563 5564 5565 5567 5568 5569 5570 5571 5572 5573 5574 5575 5576 5577
5617 5615 5613 5611 5608 5605 5602 5598 5595 5591 5587 5583 5579 5575 5571 5568 5565 5562 5559 5557 5554 5552 5550 5548 5547 5547 5547 5548 5549 5549 5550 5551 5553 5554 5556 5557 5558 5560 5561 5562 5563 5564 5565 5566